TimeEDT,TemperatureF,Dew PointF,Humidity,Sea Level PressureIn,VisibilityMPH,Wind Direction,Wind SpeedMPH,Gust SpeedMPH,PrecipitationIn,Events,Conditions,WindDirDegrees,DateUTC
12:53 AM,24.1,19.0,81,30.68,10.0,Calm,Calm,-,N/A,,Clear,0,2014-04-17 04:53:00
1:53 AM,23.0,19.9,88,30.69,10.0,Calm,Calm,-,N/A,,Clear,0,2014-04-17 05:53:00
2:53 AM,21.9,19.0,89,30.69,10.0,Calm,Calm,-,N/A,,Clear,0,2014-04-17 06:53:00
3:53 AM,21.9,18.0,85,30.71,10.0,Calm,Calm,-,N/A,,Clear,0,2014-04-17 07:53:00
4:53 AM,19.9,18.0,92,30.72,10.0,Calm,Calm,-,N/A,,Clear,0,2014-04-17 08:53:00
5:53 AM,21.9,19.0,89,30.72,10.0,Calm,Calm,-,N/A,,Clear,0,2014-04-17 09:53:00
6:53 AM,21.9,19.0,89,30.74,10.0,Calm,Calm,-,N/A,,Clear,0,2014-04-17 10:53:00
7:53 AM,27.0,19.9,75,30.76,10.0,East,5.8,-,N/A,,Clear,100,2014-04-17 11:53:00
8:53 AM,33.1,19.9,59,30.76,10.0,ENE,10.4,-,N/A,,Clear,60,2014-04-17 12:53:00
9:53 AM,37.0,18.0,46,30.76,10.0,ENE,9.2,-,N/A,,Clear,70,2014-04-17 13:53:00
10:53 AM,39.9,18.0,41,30.75,10.0,ENE,9.2,-,N/A,,Clear,60,2014-04-17 14:53:00
11:53 AM,42.8,17.6,36,30.71,10.0,ENE,4.6,-,N/A,,Clear,70,2014-04-17 15:53:00
12:53 PM,44.6,19.4,37,30.67,10.0,NE,13.8,-,N/A,,Clear,40,2014-04-17 16:53:00
1:53 PM,46.0,19.0,34,30.67,10.0,NE,9.2,-,N/A,,Clear,50,2014-04-17 17:53:00
2:53 PM,48.0,19.9,33,30.64,10.0,NE,9.2,-,N/A,,Clear,50,2014-04-17 18:53:00
3:53 PM,48.0,21.0,34,30.61,10.0,NE,15.0,-,N/A,,Clear,40,2014-04-17 19:53:00
4:53 PM,48.0,23.0,37,30.58,10.0,ENE,15.0,-,N/A,,Clear,70,2014-04-17 20:53:00
5:53 PM,48.0,24.1,39,30.56,10.0,ENE,12.7,-,N/A,,Clear,70,2014-04-17 21:53:00
6:53 PM,46.0,23.0,40,30.54,10.0,NE,11.5,-,N/A,,Clear,50,2014-04-17 22:53:00
7:53 PM,41.0,24.1,51,30.53,10.0,NE,6.9,-,N/A,,Clear,50,2014-04-17 23:53:00
8:53 PM,39.9,23.0,51,30.53,10.0,SE,6.9,-,N/A,,Clear,130,2014-04-18 00:53:00
9:53 PM,39.0,19.0,45,30.54,10.0,South,3.5,-,N/A,,Clear,170,2014-04-18 01:53:00
10:53 PM,39.9,19.0,43,30.52,10.0,SSE,8.1,-,N/A,,Clear,160,2014-04-18 02:53:00
11:53 PM,37.0,21.0,52,30.50,10.0,ENE,3.5,-,N/A,,Clear,70,2014-04-18 03:53:00